DW3800 Weather Reports


Display with metric or nautical units.
time (UTC)temp
F
wind
direction
speed
MPH
gust
MPH
rain 1hr
in
rain 24hr
in
rain mn
in
humidity
%
barometer
mb
20260507184041 52 217 2.0 7.0 0.00 0.00 0.00 34 1013.9
20260507183537 53 127 2.0 8.0 0.00 0.00 0.00 32 1013.9
20260507183034 52 282 3.0 9.0 0.00 0.00 0.00 33 1013.7
20260507182530 52 194 1.0 5.0 0.00 0.00 0.00 34 1013.8
20260507182026 52 206 4.0 7.0 0.00 0.00 0.00 32 1013.9
20260507181523 52 220 2.0 8.0 0.00 0.00 0.00 35 1014.0
20260507181020 52 233 5.0 8.0 0.00 0.00 0.00 33 1013.8
20260507180516 53 150 1.0 3.0 0.00 0.00 0.00 33 1014.0
20260507180013 52 158 3.0 7.0 0.00 0.00 0.00 33 1013.8
20260507175509 51 119 2.0 7.0 0.00 0.00 0.00 32 1014.1
20260507175007 52 224 4.0 7.0 0.00 0.00 0.00 32 1014.0
20260507174504 52 227 5.0 7.0 0.00 0.00 0.00 32 1014.1
20260507174002 51 267 5.0 9.0 0.00 0.00 0.00 33 1014.0
20260507173458 51 102 4.0 5.0 0.00 0.00 0.00 33 1014.1
20260507172955 51 125 0.0 8.0 0.00 0.00 0.00 36 1014.1
20260507172451 51 160 5.0 7.0 0.00 0.00 0.00 34 1014.2
20260507171948 51 177 7.0 10.0 0.00 0.00 0.00 34 1014.3
20260507171444 50 162 2.0 7.0 0.00 0.00 0.00 33 1014.4
20260507170941 49 46 1.0 5.0 0.00 0.00 0.00 35 1014.3
20260507170438 50 151 1.0 2.0 0.00 0.00 0.00 35 1014.5
20260507165934 51 185 6.0 9.0 0.00 0.00 0.00 35 1014.4
20260507165430 50 160 3.0 7.0 0.00 0.00 0.00 35 1014.5
20260507164926 50 147 2.0 6.0 0.00 0.00 0.00 35 1014.8
20260507164423 51 207 2.0 9.0 0.00 0.00 0.00 36 1014.7
20260507163920 51 171 2.0 3.0 0.00 0.00 0.00 38 1014.7
20260507163418 50 257 2.0 3.0 0.00 0.00 0.00 39 1014.7
20260507162914 50 10 3.0 7.0 0.00 0.00 0.00 39 1014.8
20260507162410 49 298 4.0 5.0 0.00 0.00 0.00 38 1014.9
20260507161908 49 170 5.0 6.0 0.00 0.00 0.00 39 1014.9
20260507161403 49 241 4.0 5.0 0.00 0.00 0.00 39 1014.9
20260507160900 49 213 4.0 7.0 0.00 0.00 0.00 38 1014.9
20260507160356 50 50 0.0 7.0 0.00 0.00 0.00 40 1014.8
20260507155852 49 27 1.0 3.0 0.00 0.00 0.00 40 1015.0
20260507155348 48 132 1.0 3.0 0.00 0.00 0.00 42 1014.9
20260507154845 48 264 2.0 2.0 0.00 0.00 0.00 42 1015.0
20260507154342 47 351 0.0 6.0 0.00 0.00 0.00 45 1015.1
20260507153839 49 223 4.0 6.0 0.00 0.00 0.00 41 1015.1
20260507153336 48 329 2.0 5.0 0.00 0.00 0.00 42 1014.9
20260507152832 47 201 2.0 6.0 0.00 0.00 0.00 44 1015.1
20260507152329 48 209 6.0 7.0 0.00 0.00 0.00 43 1015.2
20260507151825 47 288 2.0 6.0 0.00 0.00 0.00 44 1015.1
20260507151321 47 191 2.0 3.0 0.00 0.00 0.00 45 1015.0
20260507150818 47 71 1.0 2.0 0.00 0.00 0.00 47 1014.8
20260507150315 46 188 7.0 8.0 0.00 0.00 0.00 48 1015.4
20260507145811 46 213 3.0 5.0 0.00 0.00 0.00 47 1015.1
20260507145308 46 72 2.0 2.0 0.00 0.00 0.00 45 1015.0
20260507144805 45 65 1.0 3.0 0.00 0.00 0.00 46 1015.1
20260507144302 45 79 2.0 3.0 0.00 0.00 0.00 46 1015.1
20260507143758 45 165 4.0 5.0 0.00 0.00 0.00 47 1015.1
20260507143256 44 183 4.0 5.0 0.00 0.00 0.00 46 1015.4
20260507142751 45 8 0.0 3.0 0.00 0.00 0.00 47 1015.4
20260507142248 45 261 4.0 5.0 0.00 0.00 0.00 47 1015.4
20260507141745 44 18 0.0 2.0 0.00 0.00 0.00 46 1015.2
20260507141242 45 205 2.0 6.0 0.00 0.00 0.00 47 1015.5
20260507140738 45 349 1.0 5.0 0.00 0.00 0.00 49 1015.5
20260507140236 44 344 1.0 2.0 0.00 0.00 0.00 50 1015.5
20260507135732 45 211 2.0 3.0 0.00 0.00 0.00 53 1015.5
20260507135230 44 1 0.0 2.0 0.00 0.00 0.00 51 1015.5
20260507134726 44 225 1.0 3.0 0.00 0.00 0.00 52 1015.5
20260507134222 43 16 1.0 5.0 0.00 0.00 0.00 56 1015.6
20260507133718 43 205 4.0 6.0 0.00 0.00 0.00 57 1015.6
20260507133215 43 237 3.0 6.0 0.00 0.00 0.00 57 1015.7
20260507132713 43 179 3.0 5.0 0.00 0.00 0.00 58 1015.5
20260507132209 43 221 1.0 3.0 0.00 0.00 0.00 60 1015.4
20260507131706 43 343 0.0 2.0 0.00 0.00 0.00 60 1015.7
20260507131204 42 169 3.0 3.0 0.00 0.00 0.00 60 1015.5
20260507130700 42 247 2.0 3.0 0.00 0.00 0.00 61 1015.8
20260507130158 42 330 0.0 1.0 0.00 0.00 0.00 63 1015.7
20260507125656 41 4 0.0 1.0 0.00 0.00 0.00 65 1015.6
20260507125154 41 148 1.0 1.0 0.00 0.00 0.00 66 1015.6
20260507124649 41 304 0.0 2.0 0.00 0.00 0.00 67 1015.6
20260507124147 41 259 1.0 2.0 0.00 0.00 0.00 68 1015.9
20260507123646 40 212 1.0 2.0 0.00 0.00 0.00 69 1015.7
20260507123142 40 256 1.0 2.0 0.00 0.00 0.00 70 1015.6
20260507122637 39 290 0.0 2.0 0.00 0.00 0.00 71 1015.7
20260507122133 39 215 1.0 1.0 0.00 0.00 0.00 72 1015.8
20260507121630 39 211 2.0 2.0 0.00 0.00 0.00 72 1015.7
20260507121126 39 192 1.0 2.0 0.00 0.00 0.00 73 1015.8
20260507120622 38 243 1.0 1.0 0.00 0.00 0.00 73 1015.6
20260507120119 38 259 1.0 2.0 0.00 0.00 0.00 74 1015.9
20260507115615 37 272 0.0 2.0 0.00 0.00 0.00 75 1015.7
20260507115111 37 268 0.0 1.0 0.00 0.00 0.00 75 1015.8
20260507114607 36 253 0.0 1.0 0.00 0.00 0.00 77 1015.6
20260507114104 35 245 0.0 1.0 0.00 0.00 0.00 79 1015.7
20260507113601 33 246 0.0 0.0 0.00 0.00 0.00 82 1015.5
20260507113059 32 216 0.0 0.0 0.00 0.00 0.00 83 1015.6
20260507112556 32 212 0.0 0.0 0.00 0.00 0.00 83 1015.7
20260507112053 32 211 0.0 0.0 0.00 0.00 0.00 82 1015.6
20260507111550 33 211 0.0 0.0 0.00 0.00 0.00 81 1015.7
20260507111047 33 211 0.0 0.0 0.00 0.00 0.00 82 1015.6
20260507110543 33 211 0.0 0.0 0.00 0.00 0.00 82 1015.6
20260507110040 33 215 0.0 0.0 0.00 0.00 0.00 82 1015.8
20260507105537 33 215 0.0 0.0 0.00 0.00 0.00 81 1015.8
20260507105032 33 209 0.0 1.0 0.00 0.00 0.00 82 1015.6
20260507104530 33 230 0.0 0.0 0.00 0.00 0.00 82 1015.4
20260507104026 33 230 0.0 0.0 0.00 0.00 0.00 81 1015.7
20260507103522 34 230 0.0 0.0 0.00 0.00 0.00 80 1015.6
20260507103019 34 234 0.0 0.0 0.00 0.00 0.00 80 1015.5
20260507102516 34 233 0.0 1.0 0.00 0.00 0.00 80 1015.6
20260507102012 34 231 0.0 0.0 0.00 0.00 0.00 79 1015.6
20260507101507 34 216 0.0 0.0 0.00 0.00 0.00 80 1015.6
20260507101004 33 242 0.0 0.0 0.00 0.00 0.00 82 1015.8
20260507100502 33 242 0.0 0.0 0.00 0.00 0.00 81 1015.8
20260507095959 33 220 0.0 0.0 0.00 0.00 0.00 81 1015.8
20260507095457 33 220 0.0 0.0 0.00 0.00 0.00 80 1015.7
20260507094954 34 220 0.0 0.0 0.00 0.00 0.00 79 1015.7
20260507094450 34 220 0.0 0.0 0.00 0.00 0.00 78 1015.7
20260507093947 34 220 0.0 1.0 0.00 0.00 0.00 78 1015.8
20260507093445 34 209 0.0 0.0 0.00 0.00 0.00 78 1015.8
20260507092943 35 222 0.0 1.0 0.00 0.00 0.00 77 1015.7
20260507092438 35 236 0.0 0.0 0.00 0.00 0.00 77 1015.9
20260507091936 34 221 0.0 0.0 0.00 0.00 0.00 78 1015.8
20260507091432 34 220 0.0 0.0 0.00 0.00 0.00 78 1015.9
20260507090928 34 220 0.0 0.0 0.00 0.00 0.00 77 1015.8
20260507090424 34 224 0.0 1.0 0.00 0.00 0.00 77 1015.9
20260507085921 34 216 0.0 1.0 0.00 0.00 0.00 77 1015.7
20260507085418 34 216 0.0 0.0 0.00 0.00 0.00 76 1015.8
20260507084915 34 213 0.0 0.0 0.00 0.00 0.00 77 1015.6
20260507084412 35 204 0.0 1.0 0.00 0.00 0.00 76 1015.8
20260507083909 35 215 0.0 1.0 0.00 0.00 0.00 76 1015.9
20260507083405 35 206 0.0 1.0 0.00 0.00 0.00 77 1015.8
20260507082902 34 221 0.0 0.0 0.00 0.00 0.00 78 1015.7
20260507082357 34 209 0.0 0.0 0.00 0.00 0.00 77 1015.7
20260507081855 35 209 0.0 0.0 0.00 0.00 0.00 76 1015.8
20260507081351 35 209 0.0 0.0 0.00 0.00 0.00 75 1015.8
20260507080848 35 209 0.0 1.0 0.00 0.00 0.00 75 1015.8
20260507080344 34 214 0.0 0.0 0.00 0.00 0.00 78 1015.8
20260507075839 33 215 0.0 0.0 0.00 0.00 0.00 78 1015.5
20260507075335 33 215 0.0 0.0 0.00 0.00 0.00 78 1015.8
20260507074832 34 215 0.0 0.0 0.00 0.00 0.00 77 1015.9
20260507074330 34 215 0.0 0.0 0.00 0.00 0.00 77 1015.7
20260507073827 34 215 0.0 0.0 0.00 0.00 0.00 76 1015.9
20260507073323 35 215 0.0 0.0 0.00 0.00 0.00 76 1015.6
20260507072821 35 215 0.0 0.0 0.00 0.00 0.00 75 1015.8
20260507072318 35 215 0.0 0.0 0.00 0.00 0.00 75 1015.9
20260507071815 35 215 0.0 0.0 0.00 0.00 0.00 75 1016.1
20260507071312 35 215 0.0 0.0 0.00 0.00 0.00 73 1016.2
20260507070808 35 215 0.0 0.0 0.00 0.00 0.00 73 1016.3
20260507070306 35 215 0.0 0.0 0.00 0.00 0.00 73 1016.2
20260507065802 36 215 0.0 0.0 0.00 0.00 0.00 72 1016.3
20260507065259 36 215 0.0 0.0 0.00 0.00 0.00 72 1016.0
20260507064756 36 215 0.0 0.0 0.00 0.00 0.00 71 1016.3
20260507064255 35 215 0.0 0.0 0.00 0.00 0.00 73 1016.2
20260507063752 35 215 0.0 0.0 0.00 0.00 0.00 72 1016.3
20260507063249 35 215 0.0 0.0 0.00 0.00 0.00 72 1016.2
20260507062746 35 215 0.0 0.0 0.00 0.00 0.00 73 1016.5
20260507062243 35 186 0.0 0.0 0.00 0.00 0.00 74 1016.5
20260507061741 35 186 0.0 1.0 0.00 0.00 0.00 73 1016.6
20260507061238 35 228 0.0 0.0 0.00 0.00 0.00 74 1016.6
20260507060737 36 229 0.0 0.0 0.00 0.00 0.00 73 1016.4
20260507060233 36 229 0.0 0.0 0.00 0.00 0.00 73 1016.6
20260507055729 36 228 0.0 0.0 0.00 0.00 0.00 74 1016.6
20260507055225 36 228 0.0 0.0 0.00 0.00 0.00 73 1016.6
20260507054721 36 229 0.0 0.0 0.00 0.00 0.00 74 1016.7
20260507054218 36 228 0.0 0.0 0.00 0.00 0.00 74 1016.6
20260507053716 36 228 0.0 0.0 0.00 0.00 0.00 74 1016.6
20260507053213 36 229 0.0 0.0 0.00 0.00 0.00 74 1016.6
20260507052712 36 228 0.0 0.0 0.00 0.00 0.00 73 1016.7
20260507052208 37 228 0.0 0.0 0.00 0.00 0.00 73 1016.8
20260507051706 37 228 0.0 0.0 0.00 0.00 0.00 73 1016.8
20260507051202 37 228 0.0 0.0 0.00 0.00 0.00 72 1016.8
20260507050659 37 228 0.0 0.0 0.00 0.00 0.00 72 1016.8
20260507050156 38 228 0.0 0.0 0.00 0.00 0.00 72 1016.8
20260507045653 38 228 0.0 0.0 0.00 0.00 0.00 71 1016.6
20260507045149 38 228 0.0 0.0 0.00 0.00 0.00 70 1016.8
20260507044646 38 228 0.0 0.0 0.00 0.00 0.00 70 1017.0
20260507044143 38 215 0.0 0.0 0.00 0.00 0.00 69 1016.9
20260507043639 38 215 0.0 0.0 0.00 0.00 0.00 69 1017.1
20260507043136 38 214 0.0 0.0 0.00 0.00 0.00 68 1016.9
20260507042633 38 209 0.0 0.0 0.00 0.00 0.00 68 1017.0
20260507042127 37 209 0.0 0.0 0.00 0.00 0.00 69 1017.1
20260507041625 38 209 0.0 0.0 0.00 0.00 0.00 68 1017.2
20260507041121 38 217 0.0 0.0 0.00 0.00 0.00 67 1017.0
20260507040619 38 212 0.0 0.0 0.00 0.00 0.00 68 1016.9
20260507040115 38 214 0.0 0.0 0.00 0.00 0.00 67 1017.0
20260507035611 38 204 0.0 2.0 0.00 0.00 0.00 67 1017.1
20260507035107 37 205 0.0 0.0 0.00 0.00 0.00 69 1017.2
20260507034604 36 222 0.0 0.0 0.00 0.00 0.00 70 1017.2
20260507034102 36 244 0.0 0.0 0.00 0.00 0.00 71 1017.0
20260507033600 35 244 0.0 0.0 0.00 0.00 0.00 71 1017.1
20260507033056 35 244 0.0 0.0 0.00 0.00 0.00 71 1017.1
20260507032554 35 244 0.0 0.0 0.00 0.00 0.00 72 1017.2
20260507032050 36 244 0.0 0.0 0.00 0.00 0.00 71 1017.0
20260507031546 36 244 0.0 0.0 0.00 0.00 0.00 71 1017.4
20260507031043 36 243 0.0 0.0 0.00 0.00 0.00 70 1017.2
20260507030540 36 223 0.0 0.0 0.00 0.00 0.00 69 1017.5
20260507030038 36 205 0.0 1.0 0.00 0.00 0.00 69 1017.4
20260507025535 36 224 0.0 0.0 0.00 0.00 0.00 68 1017.3
20260507025032 37 246 0.0 0.0 0.00 0.00 0.00 68 1017.5
20260507024530 37 247 0.0 0.0 0.00 0.00 0.00 67 1017.4
20260507024026 37 257 0.0 0.0 0.00 0.00 0.00 66 1017.6
20260507023522 38 236 0.0 0.0 0.00 0.00 0.00 65 1017.5
20260507023020 38 214 0.0 0.0 0.00 0.00 0.00 63 1017.5
20260507022516 39 232 0.0 0.0 0.00 0.00 0.00 61 1017.3
20260507022012 40 262 0.0 1.0 0.00 0.00 0.00 61 1017.4
20260507021508 40 257 0.0 1.0 0.00 0.00 0.00 59 1017.3
20260507021005 41 258 1.0 1.0 0.00 0.00 0.00 58 1017.4
20260507020502 41 208 0.0 2.0 0.00 0.00 0.00 58 1017.5
20260507015959 42 223 0.0 1.0 0.00 0.00 0.00 56 1017.5
20260507015458 42 224 1.0 2.0 0.00 0.00 0.00 56 1017.3
20260507014954 42 222 1.0 1.0 0.00 0.00 0.00 55 1017.4
20260507014451 42 215 2.0 2.0 0.00 0.00 0.00 55 1017.2
20260507013946 42 251 2.0 2.0 0.00 0.00 0.00 54 1017.3
20260507013443 43 245 1.0 2.0 0.00 0.00 0.00 55 1017.2
20260507012941 43 249 0.0 1.0 0.00 0.00 0.00 55 1017.4
20260507012438 43 210 3.0 3.0 0.00 0.00 0.00 54 1017.3
20260507011934 43 241 2.0 3.0 0.00 0.00 0.00 54 1017.3
20260507011431 43 223 2.0 5.0 0.00 0.00 0.00 54 1017.3
20260507010926 43 228 2.0 2.0 0.00 0.00 0.00 53 1017.3
20260507010421 43 233 1.0 2.0 0.00 0.00 0.00 53 1017.3
20260507005918 43 233 2.0 3.0 0.00 0.00 0.00 52 1017.4
20260507005415 43 248 3.0 3.0 0.00 0.00 0.00 52 1017.4
20260507004912 43 273 1.0 3.0 0.00 0.00 0.00 53 1017.4
20260507004409 43 223 3.0 7.0 0.00 0.00 0.00 53 1017.3
20260507003906 43 226 3.0 5.0 0.00 0.00 0.00 53 1017.3
20260507003401 43 157 0.0 2.0 0.00 0.00 0.00 54 1017.4
20260507002857 43 236 3.0 6.0 0.00 0.00 0.00 52 1017.3
20260507002353 43 241 3.0 5.0 0.00 0.00 0.00 52 1017.5
20260507001850 44 228 3.0 5.0 0.00 0.00 0.00 53 1017.4
20260507001347 44 149 5.0 8.0 0.00 0.00 0.00 52 1017.4
20260507000844 44 215 7.0 10.0 0.00 0.00 0.00 52 1017.7
20260507000339 44 142 3.0 7.0 0.00 0.00 0.00 52 1017.5
20260506235836 44 223 1.0 6.0 0.00 0.00 0.00 53 1017.3
20260506235333 44 243 5.0 6.0 0.00 0.00 0.00 52 1017.5
20260506234828 44 281 2.0 3.0 0.00 0.00 0.00 53 1017.7
20260506234326 43 240 3.0 5.0 0.00 0.00 0.00 52 1017.6
20260506233824 44 180 3.0 7.0 0.00 0.00 0.00 52 1017.5
20260506233319 44 173 4.0 5.0 0.00 0.00 0.00 53 1017.8
20260506232817 44 186 2.0 7.0 0.00 0.00 0.00 53 1017.5
20260506232312 44 242 1.0 6.0 0.00 0.00 0.00 54 1017.6
20260506231809 44 242 4.0 6.0 0.00 0.00 0.00 52 1017.6
20260506231307 44 138 3.0 9.0 0.00 0.00 0.00 52 1017.7
20260506230804 44 209 3.0 5.0 0.00 0.00 0.00 52 1017.7
20260506230301 44 222 3.0 7.0 0.00 0.00 0.00 53 1017.5
20260506225757 44 249 5.0 9.0 0.00 0.00 0.00 52 1017.7
20260506225254 44 235 1.0 8.0 0.00 0.00 0.00 51 1017.6
20260506224751 44 239 3.0 5.0 0.00 0.00 0.00 51 1017.7
20260506224248 44 226 4.0 6.0 0.00 0.00 0.00 52 1017.9
20260506223744 43 256 2.0 3.0 0.00 0.00 0.00 53 1017.8
20260506223240 44 227 5.0 10.0 0.00 0.00 0.00 52 1017.6
20260506222737 43 210 4.0 7.0 0.00 0.00 0.00 52 1017.8
20260506222232 43 216 4.0 9.0 0.00 0.00 0.00 52 1017.9
20260506221731 43 216 6.0 10.0 0.00 0.00 0.00 52 1017.9
20260506221229 44 166 4.0 6.0 0.00 0.00 0.00 52 1017.8
20260506220726 43 249 3.0 6.0 0.00 0.00 0.00 53 1018.1
20260506220220 43 230 4.0 6.0 0.00 0.00 0.00 54 1017.8
20260506215717 43 222 2.0 7.0 0.00 0.00 0.00 53 1017.9
20260506215212 43 271 4.0 6.0 0.00 0.00 0.00 53 1017.9
20260506214709 43 208 7.0 10.0 0.00 0.00 0.00 53 1018.1
20260506214207 43 151 2.0 9.0 0.00 0.00 0.00 54 1018.0
20260506213705 43 210 6.0 9.0 0.00 0.00 0.00 53 1018.1
20260506213202 43 206 2.0 6.0 0.00 0.00 0.00 54 1018.3
20260506212659 43 181 5.0 9.0 0.00 0.00 0.00 54 1018.3
20260506212154 43 168 5.0 6.0 0.00 0.00 0.00 54 1018.2
20260506211650 43 226 5.0 8.0 0.00 0.00 0.00 53 1018.3
20260506211147 43 255 5.0 8.0 0.00 0.00 0.00 53 1018.3
20260506210643 43 201 4.0 7.0 0.00 0.00 0.00 54 1018.3
20260506210140 42 164 7.0 9.0 0.00 0.00 0.00 53 1018.3
20260506205638 43 222 4.0 7.0 0.00 0.00 0.00 53 1018.3
20260506205132 42 193 4.0 7.0 0.00 0.00 0.00 53 1018.2
20260506204631 42 170 6.0 10.0 0.00 0.00 0.00 54 1018.4
20260506204127 43 168 4.0 6.0 0.00 0.00 0.00 53 1018.3
20260506203625 43 241 1.0 6.0 0.00 0.00 0.00 53 1018.4
20260506203122 42 275 2.0 6.0 0.00 0.00 0.00 52 1018.4
20260506202620 42 205 8.0 9.0 0.00 0.00 0.00 52 1018.3
20260506202116 42 249 5.0 9.0 0.00 0.00 0.00 52 1018.6
20260506201613 43 174 2.0 3.0 0.00 0.00 0.00 53 1018.2
20260506201109 42 227 4.0 8.0 0.00 0.00 0.00 52 1018.3
20260506200606 42 243 4.0 6.0 0.00 0.00 0.00 53 1018.5
20260506195559 42 208 3.0 6.0 0.00 0.00 0.00 54 1018.3
20260506195056 42 232 3.0 7.0 0.00 0.00 0.00 54 1018.6
20260506194554 42 222 6.0 7.0 0.00 0.00 0.00 52 1018.6
20260506194049 42 228 4.0 9.0 0.00 0.00 0.00 53 1018.2
20260506193547 42 231 3.0 8.0 0.00 0.00 0.00 53 1018.4
20260506193044 42 189 1.0 11.0 0.00 0.00 0.00 53 1018.6
20260506192541 42 226 1.0 3.0 0.00 0.00 0.00 53 1018.5
20260506192037 41 212 5.0 9.0 0.00 0.00 0.00 53 1018.6
20260506191534 42 223 6.0 9.0 0.00 0.00 0.00 54 1018.6
20260506191029 42 170 8.0 11.0 0.00 0.00 0.00 53 1018.5
20260506190527 42 229 8.0 9.0 0.00 0.00 0.00 53 1018.3
20260506190024 42 280 1.0 10.0 0.00 0.00 0.00 53 1018.5
20260506185521 42 253 3.0 5.0 0.00 0.00 0.00 53 1018.4
20260506185017 42 217 5.0 10.0 0.00 0.00 0.00 53 1018.3
20260506184515 42 277 3.0 7.0 0.00 0.00 0.00 53 1018.6